Location: Antin
(43.3330°N, 0.2804°E)
Time: 06:38:42
(UTC+00:00)

SME Rocket - Pass Details

Date: 06 June 2022
Orbit: 551 x 2650 km, 99.9° (Epoch: 06 July)

Event Time Altitude Azimuth Distance (km) Brightness Sun altitude
Exits shadow 01:28:53 45° 187° (S) 1,034 3.7 -20.8°
Maximum altitude 01:30:21 72° 257° (WSW) 862 3.6 -20.7°
Drops below altitude 10° 01:36:45 10° 342° (NNW) 3,006 7.2 -20.2°
Sets 01:39:56 0° 344° (NNW) 4,288 8.1 -20.0°
